[[{"header":{"parameterUnit":"m.s-1","parameterCategory":1,"la1":30.2991,"la2":30.254,"lo1":-89.0895,"lo2":-89.0444,"dy":0.0017,"dx":0.0017,"nx":28,"ny":28,"refTime":"2024-12-20T03:00:00:Z","depth":0,"parameterNumber":2,"parameterNumberName":"U-component_of_WINDS"},"data":[0,0,0,0,0,0,0,0,0,0,0,0,0,0,0,0,0,0,0,0,0,0,0,0,0,0,0,0,0,0,0,0,0,0,0,0,0,0,0,0,0,0,0,0,0,0,0,0,0,0,0,0,0,0,0,0,0,0,2.9476,2.9476,0,2.9487,2.9487,2.9487,2.945,2.9449,2.9448,2.9447,2.9457,2.9458,2.9459,0,0,0,0,0,0,0,0,0,0,0,0,0,2.9426,2.9427,2.9476,2.9476,2.9477,2.9487,2.9487,2.9487,2.945,2.9449,2.9447,2.9446,2.9456,2.9458,2.9459,0,0,0,0,0,0,0,0,0,0,0,0,0,2.9443,2.9428,2.9476,2.9459,2.9458,2.9486,2.9487,2.9487,2.945,2.9449,2.9447,2.9445,2.9456,2.9457,2.9459,2.9504,0,0,2.9465,2.9466,0,0,0,0,0,0,0,0,2.9443,2.9445,2.9462,2.9461,2.9459,2.9465,2.9473,2.9493,2.9451,2.9453,2.9447,2.9445,2.9461,2.9462,2.9468,2.9505,2.9505,2.9465,2.9467,2.9467,2.9468,0,0,0,0,0,0,0,2.9441,2.9445,2.948,2.9462,2.946,2.9452,2.9452,2.9476,2.9466,2.9453,2.945,2.9452,2.946,2.9466,2.9468,2.9505,2.9465,2.9467,2.9468,2.9469,2.9584,2.9586,0,0,0,0,0,0,2.9442,2.9444,2.948,2.9481,2.9447,2.9454,2.9455,2.9465,2.9466,2.9464,2.9453,2.945,2.9463,2.9465,2.9468,2.9523,2.9467,2.9469,2.947,2.9582,2.9584,2.9586,0,0,0,0,0,0,2.9441,2.9446,2.948,2.9462,2.9465,2.9457,2.9468,2.9466,2.9472,2.9466,2.9464,2.9462,2.9462,2.9465,2.9497,2.9523,2.947,2.9472,2.958,2.9583,2.9585,2.9633,0,0,0,0,0,0,2.944,2.9446,2.9462,2.9462,2.9466,2.9508,2.947,2.9467,2.9476,2.9472,2.9473,2.9472,2.9461,2.9494,2.9498,2.9525,2.9473,2.9578,2.9581,2.9585,2.9629,2.9637,2.9644,0,0,0,0,0,2.9438,2.9474,2.9463,2.9468,2.9487,2.9509,2.9512,2.9499,2.9478,2.9495,2.9492,2.9472,2.9519,2.9497,2.9502,2.9529,2.9576,2.958,2.9584,2.9626,2.9635,2.9644,0,0,0,0,0,0,2.9476,2.9474,2.9462,2.9498,2.9505,2.9503,2.9524,2.9509,2.9521,2.9516,2.9499,2.95,2.9535,2.9535,2.9511,2.9575,2.9544,2.955,2.9574,2.9583,2.959,2.959,2.9475,0,0,0,0,0,2.9489,2.9508,2.9504,2.9537,2.9541,2.9532,2.9541,2.9531,2.9537,2.9539,2.9537,2.9544,2.956,2.9571,2.9586,2.9629,2.963,2.965,2.9658,2.9664,2.9669,2.9695,2.9705,2.96,2.96,2.96,0,0,2.9516,2.9516,2.9529,2.9545,2.9548,2.9569,2.9534,2.9556,2.9572,2.9542,2.9572,2.9572,2.9578,2.9616,2.9633,2.9617,2.9698,2.9669,2.9674,2.9676,2.97,2.971,2.9719,2.9603,2.9603,2.9602,0,0,2.9574,2.9576,2.9605,2.961,2.9616,2.9611,2.9618,2.9619,2.9618,2.9649,2.9628,2.9646,2.9674,2.968,2.9687,2.9752,2.9735,2.9757,2.9797,2.9822,2.983,2.9837,2.9863,2.9872,2.9762,2.9762,2.9762,0,2.9606,2.9636,2.9622,2.9647,2.9655,2.9631,2.9661,2.9666,2.9677,2.9684,2.9666,2.9704,2.9705,2.9746,2.9763,2.9768,2.9777,2.9757,2.983,2.9837,2.9844,2.9868,2.9878,2.9765,2.9765,2.9764,2.9764,0,2.9677,2.9698,2.972,2.9733,2.9744,2.9771,2.9763,2.9776,2.9765,2.9762,2.9795,2.9797,2.9813,2.9822,2.9811,2.9862,2.9853,2.9833,2.9802,2.9857,2.988,2.9889,2.9769,2.9768,2.9767,2.9767,0,0,2.9759,2.9765,2.9774,2.9781,2.9787,2.9804,2.9831,2.9848,2.986,2.9869,2.9893,2.9919,2.9902,2.991,2.9899,2.9921,2.9976,2.9899,2.9899,2.9916,3.0036,3.0053,3.0064,2.9965,2.9967,2.9968,3.0037,0,2.9819,2.9866,2.9855,2.9902,2.9923,2.9901,2.9925,2.9932,2.9931,2.9949,2.9946,2.9966,2.994,2.9946,2.9966,2.9965,3.0001,2.996,2.9989,2.999,2.999,3.0075,3.0092,3.0156,3.0045,3.0047,3.0048,0,2.9894,2.9908,2.9958,2.9964,2.9972,2.9994,3.001,3.0027,3.0036,3.0033,3.0044,3.003,3.0059,3.0027,3.0068,3.004,3.0051,3.0053,3.0055,3.0059,3.0023,3.0083,3.0176,3.0187,3.0061,3.006,3.0059,0,2.9953,2.9983,3.0018,3.0024,3.0031,3.0048,3.0051,3.0058,3.007,3.0084,3.0092,3.0109,3.0119,3.0133,3.0125,3.0102,3.0168,3.0135,3.0169,3.0169,3.0184,3.0184,3.0283,3.0188,3.0188,3.0188,3.0188,0,3.0022,3.0054,3.0044,3.0066,3.0101,3.0089,3.0125,3.0126,3.0134,3.0156,3.0137,3.0158,3.0146,3.0167,3.016,3.0197,3.0201,3.0201,3.0199,3.0203,3.0204,3.0211,3.0208,3.0191,3.019,3.019,3.0189,0,3.0093,3.0088,3.0125,3.0129,3.0132,3.0158,3.0162,3.0183,3.0181,3.0209,3.0215,3.0212,3.0236,3.0229,3.0254,3.025,3.0297,3.0288,3.0294,3.0293,3.0328,3.0326,3.0437,3.0452,3.0346,3.0347,3.0348,0,3.0139,3.0163,3.0171,3.0185,3.0191,3.0213,3.0226,3.0215,3.0229,3.0243,3.0263,3.0285,3.0302,3.0342,3.0342,3.0362,3.0355,3.0393,3.0358,3.0363,3.0359,3.0358,3.0362,3.04,3.0402,3.0403,3.0403,0,3.0221,3.0218,3.0237,3.0256,3.0272,3.0286,3.0299,3.0311,3.0302,3.0319,3.0344,3.0358,3.0385,3.0408,3.0427,3.0432,3.0417,3.0414,3.0424,3.0429,3.0433,3.0434,3.0316,3.0412,3.0411,3.0411,3.041,3.041,3.0282,3.0304,3.0314,3.0337,3.0346,3.0359,3.0379,3.0381,3.0401,3.0423,3.0415,3.0445,3.0455,3.048,3.0487,3.051,3.0496,3.0509,3.0512,3.0516,3.0522,3.0428,3.0513,3.0513,3.0513,3.0513,3.0512,0,3.0366,3.0372,3.0393,3.0412,3.0431,3.0415,3.0429,3.0446,3.0472,3.0483,3.0501,3.0531,3.0555,3.0558,3.058,3.0598,3.0592,3.0605,3.0604,3.0606,3.0532,3.0523,3.0609,3.0609,3.0609,3.0609,3.0609,3.0609,3.0412,3.0449,3.0447,3.049,3.0495,3.0524,3.0534,3.0546,3.0556,3.059,3.061,3.0612,3.0621,3.0644,3.0665,3.0666,3.0676,3.0691,3.069,3.062,3.0611,3.0602,3.0593,3.0693,3.0693,3.0762,3.0763,3.0763]},{"header":{"parameterUnit":"m.s-1","parameterCategory":1,"la1":30.2991,"la2":30.254,"lo1":-89.0895,"lo2":-89.0444,"dy":0.0017,"dx":0.0017,"nx":28,"ny":28,"refTime":"2024-12-20T03:00:00:Z","depth":0,"parameterNumber":3,"parameterNumberName":"V-component_of_WINDS"},"data":[0,0,0,0,0,0,0,0,0,0,0,0,0,0,0,0,0,0,0,0,0,0,0,0,0,0,0,0,0,0,0,0,0,0,0,0,0,0,0,0,0,0,0,0,0,0,0,0,0,0,0,0,0,0,0,0,0,0,-3.4744,-3.4745,0,-3.4809,-3.4809,-3.481,-3.4856,-3.4857,-3.4857,-3.4858,-3.4919,-3.492,-3.4921,0,0,0,0,0,0,0,0,0,0,0,0,0,-3.4659,-3.466,-3.4744,-3.4745,-3.4746,-3.4809,-3.4809,-3.481,-3.4856,-3.4857,-3.4857,-3.4858,-3.4918,-3.492,-3.4921,0,0,0,0,0,0,0,0,0,0,0,0,0,-3.4706,-3.466,-3.4744,-3.4777,-3.478,-3.4808,-3.4809,-3.481,-3.4856,-3.4857,-3.4857,-3.4858,-3.4918,-3.492,-3.4921,-3.4921,0,0,-3.4927,-3.4928,0,0,0,0,0,0,0,0,-3.4704,-3.471,-3.4771,-3.4774,-3.4778,-3.4825,-3.4802,-3.4847,-3.4856,-3.4827,-3.4858,-3.4858,-3.4887,-3.4891,-3.4902,-3.4924,-3.4927,-3.4927,-3.4929,-3.4929,-3.493,0,0,0,0,0,0,0,-3.47,-3.4707,-3.477,-3.4772,-3.4776,-3.4787,-3.4794,-3.4811,-3.4853,-3.483,-3.4833,-3.4841,-3.4889,-3.49,-3.4904,-3.4928,-3.4927,-3.4929,-3.493,-3.4931,-3.4955,-3.4955,0,0,0,0,0,0,-3.4692,-3.4704,-3.4768,-3.4771,-3.4742,-3.4788,-3.4796,-3.4809,-3.4853,-3.486,-3.484,-3.4842,-3.4896,-3.4901,-3.4906,-3.491,-3.4929,-3.4931,-3.4932,-3.4955,-3.4955,-3.4954,0,0,0,0,0,0,-3.469,-3.4698,-3.4765,-3.4739,-3.4748,-3.4789,-3.4803,-3.481,-3.4822,-3.4861,-3.4868,-3.4844,-3.4897,-3.4903,-3.4918,-3.4913,-3.4932,-3.4934,-3.4956,-3.4955,-3.4955,-3.4917,0,0,0,0,0,0,-3.4688,-3.4697,-3.4697,-3.4739,-3.4749,-3.4776,-3.4803,-3.4811,-3.4825,-3.4829,-3.4866,-3.4872,-3.4898,-3.4915,-3.492,-3.4916,-3.4935,-3.4957,-3.4956,-3.4955,-3.4919,-3.4915,-3.4911,0,0,0,0,0,-3.4685,-3.4682,-3.4697,-3.4704,-3.4751,-3.4776,-3.4782,-3.4813,-3.4825,-3.4826,-3.4851,-3.4871,-3.4913,-3.4916,-3.4922,-3.4918,-3.4957,-3.4956,-3.4955,-3.492,-3.4915,-3.4912,0,0,0,0,0,0,-3.4637,-3.4688,-3.4705,-3.4717,-3.4742,-3.4784,-3.4786,-3.4807,-3.4828,-3.483,-3.4866,-3.4874,-3.4885,-3.4903,-3.4906,-3.4921,-3.4937,-3.4937,-3.4909,-3.4905,-3.4901,-3.4897,-3.4937,0,0,0,0,0,-3.4629,-3.4645,-3.4689,-3.4695,-3.4707,-3.4744,-3.4756,-3.4778,-3.4805,-3.4815,-3.4841,-3.4866,-3.4885,-3.4896,-3.4915,-3.4922,-3.4931,-3.4922,-3.4919,-3.4916,-3.4915,-3.4922,-3.4919,-3.4951,-3.4951,-3.4951,0,0,-3.461,-3.464,-3.4648,-3.4686,-3.4708,-3.4724,-3.4752,-3.4768,-3.478,-3.4817,-3.4833,-3.4853,-3.4883,-3.4894,-3.49,-3.4909,-3.4908,-3.4914,-3.4911,-3.4913,-3.492,-3.4917,-3.4914,-3.495,-3.495,-3.495,0,0,-3.4584,-3.4609,-3.4617,-3.464,-3.4674,-3.4699,-3.4701,-3.4741,-3.4757,-3.4774,-3.4803,-3.4817,-3.4848,-3.4869,-3.4883,-3.4869,-3.4889,-3.4874,-3.4855,-3.4861,-3.4858,-3.4856,-3.4852,-3.485,-3.4873,-3.4873,-3.4873,0,-3.4556,-3.4583,-3.4618,-3.4633,-3.465,-3.4686,-3.4695,-3.4715,-3.4753,-3.4763,-3.4773,-3.4815,-3.4837,-3.4854,-3.4851,-3.4861,-3.4865,-3.4869,-3.4856,-3.4854,-3.4853,-3.4849,-3.4847,-3.4871,-3.4871,-3.4872,-3.4872,0,-3.4547,-3.4566,-3.4568,-3.4607,-3.4623,-3.4635,-3.4672,-3.4684,-3.4705,-3.473,-3.4747,-3.4776,-3.4803,-3.4808,-3.4828,-3.4829,-3.4834,-3.485,-3.4867,-3.4847,-3.4844,-3.4843,-3.4868,-3.4869,-3.487,-3.487,0,0,-3.4491,-3.4552,-3.4553,-3.4572,-3.4613,-3.4628,-3.4641,-3.467,-3.468,-3.4705,-3.4718,-3.4745,-3.476,-3.4777,-3.4799,-3.4804,-3.4793,-3.482,-3.4821,-3.4814,-3.4797,-3.4785,-3.4783,-3.4807,-3.4807,-3.4806,-3.4795,0,-3.4473,-3.4501,-3.4535,-3.4551,-3.4569,-3.4606,-3.4618,-3.4644,-3.4668,-3.4686,-3.4711,-3.473,-3.4749,-3.4759,-3.4766,-3.4793,-3.479,-3.4794,-3.4818,-3.4818,-3.481,-3.4781,-3.4768,-3.4756,-3.4794,-3.4794,-3.4793,0,-3.4454,-3.4481,-3.4499,-3.4542,-3.4551,-3.4561,-3.4591,-3.4608,-3.4639,-3.4656,-3.4676,-3.4701,-3.4717,-3.4733,-3.4756,-3.4758,-3.477,-3.4785,-3.4785,-3.4788,-3.4804,-3.4784,-3.4752,-3.475,-3.4792,-3.4792,-3.4792,0,-3.4413,-3.4453,-3.447,-3.4485,-3.4535,-3.4542,-3.4562,-3.4595,-3.461,-3.4636,-3.4646,-3.4673,-3.4687,-3.4706,-3.4738,-3.4746,-3.4758,-3.4776,-3.4772,-3.4771,-3.4772,-3.4771,-3.4742,-3.4779,-3.4779,-3.4779,-3.478,0,-3.4388,-3.4398,-3.4453,-3.4463,-3.4476,-3.4515,-3.4526,-3.455,-3.4579,-3.4594,-3.4627,-3.464,-3.4681,-3.4699,-3.4724,-3.474,-3.4746,-3.4759,-3.4766,-3.4757,-3.4755,-3.4765,-3.4766,-3.4779,-3.4779,-3.4779,-3.4779,0,-3.4343,-3.438,-3.4402,-3.4448,-3.446,-3.4468,-3.4508,-3.4519,-3.4546,-3.4565,-3.4571,-3.4612,-3.4636,-3.467,-3.4702,-3.4719,-3.4732,-3.4742,-3.4721,-3.4725,-3.472,-3.472,-3.4696,-3.4695,-3.4732,-3.4732,-3.4731,0,-3.4325,-3.4335,-3.4383,-3.4397,-3.4418,-3.4439,-3.4456,-3.4495,-3.4511,-3.455,-3.4556,-3.4583,-3.4606,-3.4642,-3.4674,-3.47,-3.4711,-3.4701,-3.4715,-3.4706,-3.4712,-3.4711,-3.4712,-3.4697,-3.4697,-3.4696,-3.4696,0,-3.4289,-3.4308,-3.4332,-3.4364,-3.4384,-3.441,-3.4437,-3.4446,-3.4491,-3.4507,-3.4533,-3.4551,-3.4587,-3.4613,-3.4644,-3.4664,-3.4687,-3.4691,-3.4692,-3.4683,-3.4671,-3.4678,-3.4713,-3.4691,-3.4692,-3.4692,-3.4692,-3.4693,-3.4258,-3.4269,-3.4306,-3.4332,-3.4358,-3.4383,-3.4397,-3.4427,-3.445,-3.4483,-3.4504,-3.4529,-3.4562,-3.4606,-3.4626,-3.4646,-3.4655,-3.4655,-3.4656,-3.4655,-3.4653,-3.4668,-3.4651,-3.4651,-3.4651,-3.4651,-3.4652,0,-3.4225,-3.4251,-3.4275,-3.4314,-3.4335,-3.4358,-3.439,-3.4406,-3.4428,-3.4457,-3.4481,-3.4511,-3.4537,-3.4573,-3.4601,-3.461,-3.4622,-3.4616,-3.4616,-3.4621,-3.4642,-3.4639,-3.4607,-3.4607,-3.4607,-3.4607,-3.4607,-3.4607,-3.421,-3.423,-3.4253,-3.4287,-3.4313,-3.4339,-3.4356,-3.438,-3.4404,-3.4437,-3.446,-3.4484,-3.4516,-3.4547,-3.4572,-3.4582,-3.4591,-3.4583,-3.4596,-3.4615,-3.4619,-3.4623,-3.462,-3.4584,-3.4584,-3.4573,-3.4573,-3.4572]}]]